This demonstration page uses our WeatherBlox Daily Observations layout. Learn more.

Left ArrowRight Arrow

Hourly Observations for November 12, 2022

Temp ( °F °C ) Dew Point ( °F °C ) Humidity (%) Winds ( mph kmh ) Pressure ( in mb ) Visibility ( mi km ) Precip ( " mm )
12:53 am 00:53 Clear 27 -2.8 18 -7.8 68 68 NW 5 7 30.28 1025 10 16 0.00 0.00
1:53 am 01:53 Clear 26 -3.3 18 -7.8 71 71 NNW 9 15 30.28 1026 10 16 0.00 0.00
2:53 am 02:53 Clear 26 -3.3 16 -8.9 65 65 NNW 10 17 30.28 1025 10 16 0.00 0.00
3:53 am 03:53 Clear 25 -3.9 15 -9.4 65 65 NNW 8 13 30.29 1026 10 16 0.00 0.00
4:53 am 04:53 Clear 24 -4.4 14 -10 65 65 N 7 11 30.29 1026 10 16 0.00 0.00
5:53 am 05:53 Clear 23 -5 13 -10.6 65 65 NNW 9 15 30.32 1027 10 16 0.00 0.00
6:53 am 06:53 Clear 20 -6.7 12 -11.1 71 71 NNW 8 13 30.33 1027 10 16 0.00 0.00
7:53 am 07:53 Sunny 23 -5 12 -11.1 62 62 NNW 9 15 30.35 1028 10 16 0.00 0.00
8:53 am 08:53 Sunny 26 -3.3 12 -11.1 55 55 N 12 19 30.36 1028 10 16 0.00 0.00
9:53 am 09:53 Sunny 28 -2.2 13 -10.6 52 52 N 14 22 30.37 1028 10 16 0.00 0.00
10:53 am 10:53 Sunny 31 -0.6 13 -10.6 47 47 NNW 10 17 30.37 1029 10 16 0.00 0.00
11:53 am 11:53 Sunny 35 1.7 12 -11.1 38 38 NW 10 17 30.36 1028 10 16 0.00 0.00
12:53 pm 12:53 Sunny 38 3.3 9 -12.8 29 29 NNW 10 17 30.33 1027 10 16 0.00 0.00
1:53 pm 13:53 Sunny 40 4.4 10 -12.2 29 29 NNW 8 13 30.31 1026 10 16 0.00 0.00
2:53 pm 14:53 Sunny 42 5.6 11 -11.7 27 27 N 10 17 30.30 1026 10 16 0.00 0.00
3:53 pm 15:53 Sunny 42 5.6 13 -10.6 30 30 N 6 9 30.30 1026 10 16 0.00 0.00
4:53 pm 16:53 Mostly Sunny 39 3.9 13 -10.6 34 34 N 8 13 30.31 1026 10 16 0.00 0.00
5:53 pm 17:53 Mostly Clear 35 1.7 15 -9.4 43 43 NE 7 11 30.32 1027 10 16 0.00 0.00
6:53 pm 18:53 Mostly Clear 32 0 16 -8.9 51 51 NE 8 13 30.32 1027 10 16 0.00 0.00
7:53 pm 19:53 Mostly Clear 31 -0.6 15 -9.4 51 51 ENE 8 13 30.33 1027 10 16 0.00 0.00
8:53 pm 20:53 Partly Cloudy 29 -1.7 15 -9.4 56 56 E 5 7 30.34 1027 10 16 0.00 0.00
9:53 pm 21:53 Partly Cloudy 27 -2.8 16 -8.9 63 63 ENE 8 13 30.35 1028 10 16 0.00 0.00
10:53 pm 22:53 Clear 27 -2.8 16 -8.9 63 63 ESE 7 11 30.34 1027 10 16 0.00 0.00
11:53 pm 23:53 Clear 24 -4.4 16 -8.9 71 71 SE 3 6 30.33 1027 10 16 0.00 0.00

Powered by AerisWeather